Hourly Weather Córdoba

Today, 26 September, Saturday

Time Temperature Precipitation Wind Pressure Humidity
00:00 +22°C° 0.4 mm 1 mps 717 mmHg 79%
01:00 +21°C° 0.4 mm 1 mps 716 mmHg 83%
02:00 +21°C° 0.4 mm 1 mps 716 mmHg 88%
03:00 +21°C° 0.2 mm 1 mps 716 mmHg 89%
04:00 +21°C° 0.2 mm 1 mps 716 mmHg 89%
05:00 +21°C° 0.2 mm 1 mps 716 mmHg 90%
06:00 +22°C° 0.1 mm 1 mps 716 mmHg 87%
07:00 +22°C° 0.1 mm 1 mps 716 mmHg 83%
08:00 +23°C° 0.1 mm 1 mps 717 mmHg 80%
09:00 +25°C° 0 mm 2 mps 717 mmHg 74%
10:00 +26°C° 0 mm 2 mps 717 mmHg 67%
11:00 +28°C° 0 mm 3 mps 717 mmHg 60%
12:00 +28°C° 0.1 mm 5 mps 717 mmHg 58%
13:00 +28°C° 0.1 mm 7 mps 717 mmHg 55%
14:00 +28°C° 0.1 mm 9 mps 717 mmHg 52%
15:00 +27°C° 0 mm 9 mps 718 mmHg 52%
16:00 +24°C° 0 mm 9 mps 718 mmHg 52%
17:00 +23°C° 0 mm 9 mps 718 mmHg 52%
18:00 +21°C° 0 mm 8 mps 719 mmHg 53%
19:00 +20°C° 0 mm 7 mps 720 mmHg 54%
20:00 +17°C° 0 mm 7 mps 721 mmHg 55%
21:00 +17°C° 0 mm 6 mps 721 mmHg 51%
22:00 +17°C° 0 mm 6 mps 721 mmHg 46%
23:00 +16°C° 0 mm 6 mps 721 mmHg 41%

Tomorrow, 27 September, Sunday

Time Temperature Precipitation Wind Pressure Humidity
00:00 +16°C° 0 mm 6 mps 721 mmHg 41%
01:00 +15°C° 0 mm 6 mps 721 mmHg 40%
02:00 +15°C° 0 mm 5 mps 721 mmHg 39%
03:00 +14°C° 0 mm 5 mps 721 mmHg 43%
04:00 +13°C° 0 mm 4 mps 721 mmHg 48%
05:00 +13°C° 0 mm 4 mps 722 mmHg 52%
06:00 +14°C° 0 mm 5 mps 722 mmHg 46%
07:00 +16°C° 0 mm 5 mps 723 mmHg 40%
08:00 +17°C° 0 mm 6 mps 724 mmHg 34%
09:00 +20°C° 0 mm 6 mps 724 mmHg 31%
10:00 +21°C° 0 mm 6 mps 724 mmHg 28%
11:00 +23°C° 0 mm 7 mps 724 mmHg 25%
12:00 +24°C° 0 mm 7 mps 724 mmHg 23%
13:00 +26°C° 0 mm 7 mps 723 mmHg 20%
14:00 +27°C° 0 mm 7 mps 723 mmHg 18%
15:00 +26°C° 0 mm 6 mps 723 mmHg 18%
16:00 +24°C° 0 mm 6 mps 722 mmHg 19%
17:00 +24°C° 0 mm 6 mps 722 mmHg 19%
18:00 +22°C° 0 mm 5 mps 723 mmHg 24%
19:00 +20°C° 0 mm 3 mps 723 mmHg 29%
20:00 +17°C° 0 mm 2 mps 724 mmHg 34%
21:00 +18°C° 0 mm 1 mps 724 mmHg 36%
22:00 +16°C° 0 mm 1 mps 724 mmHg 39%
23:00 +15°C° 0 mm 1 mps 725 mmHg 41%

Day after tomorrow, 28 September, Monday

Time Temperature Precipitation Wind Pressure Humidity
00:00 +15°C° 0 mm 1 mps 724 mmHg 43%
01:00 +15°C° 0 mm 1 mps 724 mmHg 45%
02:00 +13°C° 0 mm 0 mps 723 mmHg 46%
03:00 +14°C° 0 mm 1 mps 723 mmHg 48%
04:00 +13°C° 0 mm 1 mps 723 mmHg 49%
05:00 +13°C° 0 mm 1 mps 723 mmHg 51%
06:00 +15°C° 0 mm 2 mps 724 mmHg 48%
07:00 +16°C° 0 mm 2 mps 724 mmHg 45%
08:00 +18°C° 0 mm 3 mps 724 mmHg 42%
09:00 +20°C° 0 mm 4 mps 724 mmHg 37%
10:00 +22°C° 0 mm 4 mps 724 mmHg 31%
11:00 +25°C° 0 mm 5 mps 724 mmHg 26%
12:00 +26°C° 0 mm 5 mps 723 mmHg 23%
13:00 +27°C° 0 mm 6 mps 722 mmHg 20%
14:00 +28°C° 0 mm 6 mps 721 mmHg 17%
15:00 +28°C° 0 mm 7 mps 720 mmHg 18%
16:00 +27°C° 0 mm 7 mps 719 mmHg 20%
17:00 +26°C° 0 mm 7 mps 718 mmHg 22%
18:00 +23°C° 0 mm 6 mps 719 mmHg 27%
19:00 +21°C° 0 mm 5 mps 719 mmHg 32%
20:00 +19°C° 0 mm 4 mps 719 mmHg 37%
21:00 +18°C° 0 mm 4 mps 719 mmHg 40%
22:00 +18°C° 0 mm 4 mps 719 mmHg 43%
23:00 +17°C° 0 mm 4 mps 719 mmHg 45%

29 September, Tuesday

Time Temperature Precipitation Wind Pressure Humidity
00:00 +17°C° 0 mm 4 mps 718 mmHg 46%
01:00 +15°C° 0 mm 4 mps 718 mmHg 47%
02:00 +15°C° 0 mm 4 mps 717 mmHg 49%
03:00 +14°C° 0 mm 4 mps 717 mmHg 49%
04:00 +14°C° 0 mm 4 mps 717 mmHg 50%
05:00 +14°C° 0 mm 4 mps 717 mmHg 51%
06:00 +16°C° 0 mm 5 mps 717 mmHg 46%
07:00 +19°C° 0 mm 5 mps 717 mmHg 40%
08:00 +21°C° 0 mm 6 mps 718 mmHg 35%
09:00 +24°C° 0 mm 6 mps 718 mmHg 28%
10:00 +28°C° 0 mm 6 mps 718 mmHg 22%
11:00 +32°C° 0 mm 7 mps 718 mmHg 15%
12:00 +34°C° 0 mm 7 mps 717 mmHg 13%
13:00 +35°C° 0 mm 6 mps 717 mmHg 10%
14:00 +36°C° 0 mm 6 mps 716 mmHg 8%
15:00 +35°C° 0 mm 6 mps 716 mmHg 8%
16:00 +35°C° 0 mm 5 mps 716 mmHg 8%
17:00 +34°C° 0 mm 4 mps 715 mmHg 8%
18:00 +30°C° 0 mm 4 mps 716 mmHg 15%
19:00 +27°C° 0 mm 3 mps 716 mmHg 22%
20:00 +24°C° 0 mm 3 mps 717 mmHg 30%
21:00 +22°C° 0 mm 3 mps 717 mmHg 33%
22:00 +21°C° 0 mm 3 mps 717 mmHg 36%
23:00 +20°C° 0 mm 3 mps 717 mmHg 39%

30 September, Wednesday

Time Temperature Precipitation Wind Pressure Humidity
00:00 +20°C° 0 mm 3 mps 717 mmHg 40%
01:00 +19°C° 0 mm 3 mps 717 mmHg 42%
02:00 +19°C° 0 mm 3 mps 717 mmHg 44%
03:00 +17°C° 0 mm 5 mps 718 mmHg 49%
04:00 +16°C° 0 mm 6 mps 718 mmHg 55%
05:00 +15°C° 0 mm 8 mps 719 mmHg 60%
06:00 +15°C° 0 mm 8 mps 720 mmHg 51%
07:00 +15°C° 0 mm 8 mps 721 mmHg 43%
08:00 +15°C° 0 mm 8 mps 722 mmHg 34%
09:00 +15°C° 0 mm 7 mps 723 mmHg 29%
10:00 +16°C° 0 mm 7 mps 723 mmHg 24%
11:00 +17°C° 0 mm 6 mps 723 mmHg 20%
12:00 +19°C° 0 mm 6 mps 722 mmHg 18%
13:00 +20°C° 0 mm 6 mps 722 mmHg 17%
14:00 +21°C° 0 mm 6 mps 721 mmHg 15%
15:00 +21°C° 0 mm 5 mps 721 mmHg 15%
16:00 +20°C° 0 mm 5 mps 721 mmHg 16%
17:00 +19°C° 0 mm 5 mps 721 mmHg 16%
18:00 +17°C° 0 mm 4 mps 721 mmHg 18%
19:00 +16°C° 0 mm 3 mps 722 mmHg 20%
20:00 +14°C° 0 mm 2 mps 722 mmHg 22%
21:00 +13°C° 0 mm 1 mps 722 mmHg 23%
22:00 +12°C° 0 mm 1 mps 722 mmHg 25%
23:00 +12°C° 0 mm 1 mps 722 mmHg 26%

1 October, Thursday

Time Temperature Precipitation Wind Pressure Humidity
00:00 +11°C° 0 mm 1 mps 722 mmHg 27%
01:00 +11°C° 0 mm 1 mps 722 mmHg 28%
02:00 +10°C° 0 mm 1 mps 721 mmHg 29%
03:00 +10°C° 0 mm 1 mps 722 mmHg 29%
04:00 +10°C° 0 mm 1 mps 722 mmHg 30%
05:00 +10°C° 0 mm 1 mps 722 mmHg 30%
06:00 +10°C° 0 mm 2 mps 723 mmHg 29%
07:00 +12°C° 0 mm 4 mps 724 mmHg 28%
08:00 +13°C° 0 mm 5 mps 725 mmHg 27%
09:00 +14°C° 0 mm 5 mps 725 mmHg 25%
10:00 +15°C° 0 mm 6 mps 726 mmHg 23%
11:00 +15°C° 0 mm 7 mps 726 mmHg 21%
12:00 +16°C° 0 mm 7 mps 726 mmHg 21%
13:00 +17°C° 0 mm 6 mps 725 mmHg 20%
14:00 +17°C° 0 mm 6 mps 725 mmHg 20%
15:00 +17°C° 0 mm 6 mps 725 mmHg 20%
16:00 +16°C° 0 mm 6 mps 725 mmHg 20%
17:00 +16°C° 0 mm 6 mps 726 mmHg 20%
18:00 +14°C° 0 mm 5 mps 727 mmHg 22%
19:00 +12°C° 0 mm 4 mps 727 mmHg 24%
20:00 +10°C° 0 mm 3 mps 728 mmHg 26%
21:00 +10°C° 0 mm 3 mps 729 mmHg 27%
22:00 +9°C° 0 mm 2 mps 730 mmHg 28%
23:00 +8°C° 0 mm 2 mps 730 mmHg 30%
Show more